Previsão horária em Cepno

Hoje, 3 Agosto, Terça-feira

Tempo Temperatura Precipitação Vento Pressão Humidade
00:00 +14°C° 0 mm 3 m/s 751 mmHg 74%
01:00 +13°C° 0 mm 3 m/s 752 mmHg 79%
02:00 +12°C° 0 mm 3 m/s 752 mmHg 82%
03:00 +12°C° 0 mm 3 m/s 752 mmHg 85%
04:00 +12°C° 0 mm 3 m/s 752 mmHg 88%
05:00 +13°C° 0 mm 3 m/s 752 mmHg 82%
06:00 +15°C° 0 mm 4 m/s 753 mmHg 75%
07:00 +17°C° 0 mm 4 m/s 753 mmHg 70%
08:00 +19°C° 0 mm 4 m/s 753 mmHg 63%
09:00 +20°C° 0 mm 4 m/s 753 mmHg 55%
10:00 +22°C° 0 mm 4 m/s 753 mmHg 48%
11:00 +23°C° 0 mm 5 m/s 753 mmHg 44%
12:00 +23°C° 0 mm 5 m/s 752 mmHg 40%
13:00 +25°C° 0 mm 5 m/s 752 mmHg 36%
14:00 +23°C° 0 mm 4 m/s 752 mmHg 41%
15:00 +22°C° 0 mm 4 m/s 752 mmHg 45%
16:00 +21°C° 0 mm 3 m/s 752 mmHg 50%
17:00 +20°C° 0 mm 2 m/s 752 mmHg 53%
18:00 +20°C° 0 mm 2 m/s 752 mmHg 56%
19:00 +20°C° 0 mm 1 m/s 752 mmHg 59%
20:00 +19°C° 0 mm 1 m/s 753 mmHg 60%
21:00 +19°C° 0 mm 1 m/s 753 mmHg 62%
22:00 +18°C° 0 mm 1 m/s 753 mmHg 64%
23:00 +18°C° 0 mm 1 m/s 753 mmHg 67%

Amanhã, 4 Agosto, Quarta-feira

Tempo Temperatura Precipitação Vento Pressão Humidade
00:00 +16°C° 0 mm 1 m/s 753 mmHg 69%
01:00 +15°C° 0 mm 1 m/s 753 mmHg 72%
02:00 +16°C° 0 mm 1 m/s 753 mmHg 71%
03:00 +16°C° 0 mm 1 m/s 753 mmHg 70%
04:00 +16°C° 0 mm 1 m/s 753 mmHg 70%
05:00 +16°C° 0 mm 1 m/s 753 mmHg 70%
06:00 +18°C° 0 mm 1 m/s 753 mmHg 70%
07:00 +18°C° 0 mm 1 m/s 754 mmHg 70%
08:00 +19°C° 0 mm 1 m/s 754 mmHg 69%
09:00 +19°C° 0 mm 2 m/s 754 mmHg 68%
10:00 +19°C° 0 mm 2 m/s 754 mmHg 67%
11:00 +20°C° 0.2 mm 2 m/s 753 mmHg 64%
12:00 +21°C° 0.2 mm 2 m/s 753 mmHg 61%
13:00 +23°C° 0.2 mm 2 m/s 753 mmHg 58%
14:00 +23°C° 0.1 mm 2 m/s 753 mmHg 56%
15:00 +23°C° 0.1 mm 2 m/s 753 mmHg 54%
16:00 +24°C° 0.1 mm 2 m/s 753 mmHg 53%
17:00 +23°C° 0.3 mm 2 m/s 753 mmHg 60%
18:00 +20°C° 0.3 mm 2 m/s 752 mmHg 67%
19:00 +19°C° 0.3 mm 2 m/s 752 mmHg 74%
20:00 +18°C° 0 mm 2 m/s 753 mmHg 78%
21:00 +17°C° 0 mm 2 m/s 753 mmHg 83%
22:00 +16°C° 0 mm 2 m/s 753 mmHg 87%
23:00 +15°C° 0 mm 2 m/s 753 mmHg 89%

Depois de amanhã, 5 Agosto, Quinta-feira

Tempo Temperatura Precipitação Vento Pressão Humidade
00:00 +15°C° 0 mm 2 m/s 753 mmHg 90%
01:00 +14°C° 0 mm 2 m/s 753 mmHg 92%
02:00 +14°C° 0 mm 2 m/s 752 mmHg 93%
03:00 +14°C° 0 mm 2 m/s 752 mmHg 94%
04:00 +14°C° 0 mm 2 m/s 752 mmHg 94%
05:00 +15°C° 0 mm 2 m/s 752 mmHg 89%
06:00 +16°C° 0 mm 2 m/s 752 mmHg 84%
07:00 +18°C° 0 mm 2 m/s 752 mmHg 79%
08:00 +19°C° 0 mm 2 m/s 752 mmHg 72%
09:00 +21°C° 0 mm 3 m/s 752 mmHg 65%
10:00 +22°C° 0 mm 3 m/s 752 mmHg 59%
11:00 +24°C° 0.6 mm 3 m/s 751 mmHg 57%
12:00 +24°C° 0.6 mm 3 m/s 751 mmHg 56%
13:00 +23°C° 0.6 mm 4 m/s 751 mmHg 55%
14:00 +24°C° 0.5 mm 3 m/s 750 mmHg 57%
15:00 +24°C° 0.5 mm 3 m/s 750 mmHg 60%
16:00 +22°C° 0.5 mm 3 m/s 750 mmHg 62%
17:00 +21°C° 0.4 mm 3 m/s 750 mmHg 67%
18:00 +20°C° 0.4 mm 2 m/s 750 mmHg 71%
19:00 +19°C° 0.4 mm 2 m/s 749 mmHg 76%
20:00 +18°C° 0 mm 2 m/s 749 mmHg 79%
21:00 +17°C° 0 mm 2 m/s 749 mmHg 83%
22:00 +16°C° 0 mm 3 m/s 749 mmHg 87%
23:00 +16°C° 0 mm 3 m/s 749 mmHg 89%

6 Agosto, Sexta-feira

Tempo Temperatura Precipitação Vento Pressão Humidade
00:00 +16°C° 0 mm 3 m/s 749 mmHg 90%
01:00 +14°C° 0 mm 3 m/s 748 mmHg 91%
02:00 +14°C° 0 mm 3 m/s 748 mmHg 92%
03:00 +14°C° 0 mm 3 m/s 748 mmHg 93%
04:00 +14°C° 0 mm 3 m/s 748 mmHg 94%
05:00 +14°C° 0 mm 3 m/s 748 mmHg 89%
06:00 +15°C° 0 mm 4 m/s 748 mmHg 85%
07:00 +17°C° 0 mm 4 m/s 748 mmHg 81%
08:00 +18°C° 0 mm 4 m/s 748 mmHg 72%
09:00 +20°C° 0 mm 4 m/s 748 mmHg 62%
10:00 +21°C° 0 mm 5 m/s 748 mmHg 53%
11:00 +22°C° 0 mm 5 m/s 747 mmHg 50%
12:00 +23°C° 0 mm 5 m/s 747 mmHg 46%
13:00 +25°C° 0 mm 5 m/s 747 mmHg 43%
14:00 +23°C° 0 mm 5 m/s 747 mmHg 45%
15:00 +23°C° 0 mm 5 m/s 747 mmHg 46%
16:00 +23°C° 0 mm 5 m/s 747 mmHg 48%
17:00 +22°C° 0 mm 4 m/s 748 mmHg 52%
18:00 +21°C° 0 mm 4 m/s 748 mmHg 56%
19:00 +20°C° 0 mm 3 m/s 748 mmHg 59%
20:00 +19°C° 0 mm 3 m/s 748 mmHg 63%
21:00 +18°C° 0 mm 3 m/s 748 mmHg 66%
22:00 +17°C° 0 mm 2 m/s 748 mmHg 69%
23:00 +16°C° 0 mm 2 m/s 748 mmHg 72%

7 Agosto, Sábado

Tempo Temperatura Precipitação Vento Pressão Humidade
00:00 +16°C° 0 mm 2 m/s 749 mmHg 76%
01:00 +15°C° 0 mm 2 m/s 749 mmHg 79%
02:00 +15°C° 0 mm 2 m/s 749 mmHg 80%
03:00 +14°C° 0 mm 2 m/s 749 mmHg 81%
04:00 +14°C° 0 mm 2 m/s 749 mmHg 82%
05:00 +16°C° 0 mm 2 m/s 749 mmHg 76%
06:00 +17°C° 0 mm 2 m/s 749 mmHg 69%
07:00 +19°C° 0 mm 2 m/s 749 mmHg 63%
08:00 +21°C° 0 mm 2 m/s 749 mmHg 55%
09:00 +24°C° 0 mm 2 m/s 749 mmHg 48%
10:00 +25°C° 0 mm 2 m/s 749 mmHg 41%
11:00 +26°C° 0 mm 2 m/s 749 mmHg 39%
12:00 +27°C° 0 mm 2 m/s 749 mmHg 38%
13:00 +28°C° 0 mm 3 m/s 749 mmHg 37%
14:00 +27°C° 0 mm 3 m/s 749 mmHg 41%
15:00 +27°C° 0 mm 3 m/s 749 mmHg 45%
16:00 +26°C° 0 mm 3 m/s 749 mmHg 48%
17:00 +25°C° 0 mm 3 m/s 750 mmHg 52%
18:00 +24°C° 0 mm 2 m/s 750 mmHg 55%
19:00 +23°C° 0 mm 2 m/s 750 mmHg 58%
20:00 +23°C° 0 mm 2 m/s 750 mmHg 60%
21:00 +21°C° 0 mm 2 m/s 750 mmHg 61%
22:00 +21°C° 0 mm 2 m/s 750 mmHg 63%
23:00 +20°C° 0 mm 2 m/s 751 mmHg 65%

8 Agosto, Domingo

Tempo Temperatura Precipitação Vento Pressão Humidade
00:00 +19°C° 0 mm 2 m/s 751 mmHg 67%
01:00 +19°C° 0 mm 2 m/s 751 mmHg 69%
02:00 +20°C° 0 mm 1 m/s 751 mmHg 68%
03:00 +20°C° 0 mm 1 m/s 751 mmHg 67%
04:00 +20°C° 0 mm 1 m/s 751 mmHg 66%
05:00 +21°C° 0 mm 1 m/s 751 mmHg 66%
06:00 +21°C° 0 mm 1 m/s 752 mmHg 65%
07:00 +22°C° 0 mm 1 m/s 752 mmHg 64%
08:00 +23°C° 0 mm 2 m/s 752 mmHg 63%
09:00 +23°C° 0 mm 2 m/s 752 mmHg 62%
10:00 +24°C° 0 mm 3 m/s 753 mmHg 61%
11:00 +22°C° 0.7 mm 3 m/s 753 mmHg 67%
12:00 +21°C° 0.7 mm 2 m/s 753 mmHg 72%
13:00 +20°C° 0.7 mm 2 m/s 754 mmHg 78%
14:00 +21°C° 0.4 mm 3 m/s 754 mmHg 78%
15:00 +21°C° 0.4 mm 3 m/s 754 mmHg 78%
16:00 +21°C° 0.4 mm 4 m/s 754 mmHg 78%
17:00 +20°C° 0 mm 4 m/s 754 mmHg 79%
18:00 +20°C° 0 mm 4 m/s 755 mmHg 81%
19:00 +19°C° 0 mm 4 m/s 755 mmHg 82%
20:00 +19°C° 0 mm 4 m/s 755 mmHg 85%
21:00 +18°C° 0 mm 3 m/s 756 mmHg 88%
22:00 +17°C° 0 mm 3 m/s 756 mmHg 91%
23:00 +17°C° 0 mm 3 m/s 756 mmHg 91%
Mostrar mais

Necessitamos do seu Consentimento

A Meteoprog e os seus Fornecedores de Serviços podem armazenar e aceder a dados pessoais como cookies, identificadores do dispositivo ou outras tecnologias semelhantes existentes no seu dispositivo e processar estes dados para personalizar conteúdos e anúncios, assim como funcionalidades nas redes sociais e análise de tráfego.

  • Armazenar e/ou aceder a informações no seu dispositivo

    Os cookies, identificadores do dispositivo ou outras informações podem ser armazenados ou acedidos no seu dispositivo, para os fins acima indicados.

  • Anúncios e conteúdos personalizados, medição de anúncios e conteúdos, dados sobre o público-alvo e desenvolvimento de produtos

    Os anúncios e os conteúdos podem ser personalizados com base num perfil. Podem ser adicionados dados adicionais para uma maior personalização dos anúncios e dos conteúdos. A eficácia dos anúncios e dos conteúdos pode ser medida. Podem ser obtidas informações sobre o público que visualizou os anúncios e os conteúdos. Estes dados podem ser usados para desenvolver ou melhorar sistemas, softwares ou a experiência do utilizador.

Ao clicar em "Eu concordo”, permitirá o uso de cookies, identificadores do dispositivo e web beacons mencionados ou outras tecnologias semelhantes. As configurações do navegador do seu dispositivo podem ser alteradas.

Para certos fins, podem ser invocados interesses legítimos ao invés de consentimento. Pode ler mais informação sobre este assunto na nossa Política de Privacidade e Cookies.